S/2003 J 5
Epoch 2003 June 10.0 TT = JDT 2452800.5                 MPC
M 222.11348              (2000.0)            P               Q
n   0.47336663     Peri.  122.05080     +0.24044232     +0.96711852
a   0.1605612      Node   198.68323     +0.78031012     -0.14179886
e   0.2095471      Incl.  165.00518     +0.57732453     -0.21112760
P   2.08           H   15.6           P/d   760.51
Residuals in seconds of arc
K0326  568  0.8-  0.2-    K032N  568  0.1+  0.0     K0333  568  0.0   0.0
K0326  568  0.9+  0.4+    K032N  568  0.0   0.2+
K032A  568  0.1-  0.3-    K0333  568  0.0   0.1-

S/2003 J 6
Epoch 2003 June 10.0 TT = JDT 2452800.5                 MPC
M  39.66589              (2000.0)            P               Q
n   1.53928013     Peri.   88.11033     +0.11065064     -0.99334078
a   0.0731522      Node   355.17026     +0.69057469     +0.10007369
e   0.7593650      Incl.   22.41299     +0.71474683     +0.05709075
P   0.64           H   16.0           P/d   233.88
Residuals in seconds of arc
K0326  568  0.8+  0.4-    K032N  568  0.5+  0.0     K0333  568  0.2-  0.2-
K0326  568  0.9+  0.2-    K032N  568  0.3+  0.3+    K0334  568  0.6-  0.1-
K0326  568  0.5+  0.5-    K032P  568  1.0+  0.1+    K0334  568  0.5-  0.0
K0329  568  1.4-  0.7+    K032P  568  1.0+  0.0
K0329  568  2.0-  0.4+    K0333  568  0.2-  0.1-

S/2003 J 7
Epoch 2003 June 10.0 TT = JDT 2452800.5                 MPC
M  57.92622              (2000.0)            P               Q
n   0.48163744     Peri.   96.98465     -0.10625820     +0.99070820
a   0.1587177      Node   193.96709     +0.71534818     +0.13546402
e   0.4050509      Incl.  159.40791     +0.69064186     +0.01211470
P   2.05           H   15.8           P/d   747.45
Residuals in seconds of arc
K0328  568  0.3-  0.0     K032A  568  0.7+  0.0     K032Q  568  0.2-  0.1-
K0328  568  0.0   0.2+    K032N  568  0.3-  0.3-    K0332  568  0.3+  0.1+
K0329  568  0.2-  0.1-    K032N  568  0.0   0.0     K0332  568  0.1+  0.1+
K0329  568  0.0   0.0     K032Q  568  0.2-  0.2+

Ephemerides:
    S/2003 J 1                                                   q = 0.0153
Date    TT    R. A. (2000) Decl.     Delta     r_J   dR.A. ("/m)  dDecl.m1"/')
2003 03 02    08 53.62   +18 47.7    4.344    0.128  3420+/4.01+   430+/  7.2+
2003 03 12    08 49.65   +19 05.3    4.440    0.125  2984+/3.51+   675+/ 11.3+
2003 03 22    08 46.80   +19 17.3    4.560    0.120  2535+/2.98+   881+/ 14.7+
2003 04 01    08 45.21   +19 23.6    4.700    0.113  2085+/2.46+  1045+/ 17.4+
2003 04 11    08 44.92   +19 24.1    4.854    0.105  1642+/1.93+  1164+/ 19.4+
2003 04 21    08 45.90   +19 18.9    5.019    0.095  1205+/1.42+  1239+/ 20.7+
2003 05 01    08 48.06   +19 08.3    5.190    0.082   768+/0.90+  1265+/ 21.1+
2003 05 11    08 51.30   +18 52.1    5.363    0.067   323+/0.38+  1227+/ 20.5+
2003 05 21    08 55.48   +18 30.1    5.538    0.048   133-/0.16-  1082+/ 18.0+
2003 05 31    09 00.57   +17 59.3    5.716    0.025   519-/0.61-   648+/ 10.8+
2003 06 10    09 07.69   +17 12.1    5.877    0.023   220+/0.26+   554-/  9.2-
2003 06 20    09 15.69   +16 33.2    5.990    0.047  1210+/1.40+  1058-/ 17.6-
2003 06 30    09 23.75   +15 56.7    6.088    0.066  1841+/2.13+  1227-/ 20.4-
2003 07 10    09 32.00   +15 19.2    6.171    0.081  2298+/2.65+  1286-/ 21.4-

    S/2003 J 2                                                   q = 0.1181
Date    TT    R. A. (2000) Decl.     Delta     r_J   dR.A. ("/m)  dDecl. ("/')
2003 03 02    08 55.37   +18 26.9    4.497    0.118  4915+/5.76+   816-/ 13.6-
2003 03 12    08 51.37   +18 36.1    4.607    0.118  4459+/5.23+  1079-/ 18.0-
2003 03 22    08 48.43   +18 40.7    4.737    0.120  3936+/4.62+  1315-/ 21.9-
2003 04 01    08 46.69   +18 40.9    4.885    0.121  3356+/3.94+  1520-/ 25.3-
2003 04 11    08 46.19   +18 36.6    5.044    0.124  2734+/3.21+  1687-/ 28.1-
2003 04 21    08 46.92   +18 28.0    5.210    0.127  2081+/2.44+  1815-/ 30.2-
2003 05 01    08 48.81   +18 15.5    5.378    0.131  1411+/1.65+  1903-/ 31.7-
2003 05 11    08 51.77   +17 59.1    5.545    0.134   734+/0.86+  1953-/ 32.5-
2003 05 21    08 55.70   +17 39.3    5.705    0.139    59+/0.07+  1967-/ 32.8-
2003 05 31    09 00.47   +17 16.0    5.856    0.143   606-/0.70-  1949-/ 32.5-
2003 06 10    09 05.98   +16 49.6    5.995    0.148  1253-/1.45-  1902-/ 31.7-
2003 06 20    09 12.11   +16 20.3    6.119    0.153  1879-/2.18-  1831-/ 30.5-
2003 06 30    09 18.76   +15 48.1    6.227    0.158  2478-/2.86-  1740-/ 29.0-
2003 07 10    09 25.84   +15 13.4    6.316    0.163  3049-/3.51-  1633-/ 27.2-

    S/2003 J 3                                                   q = 0.0927
Date    TT    R. A. (2000) Decl.     Delta     r_J   dR.A. ("/m)  dDecl. ("/')
2003 03 02    08 55.18   +18 08.4    4.391    0.125  4766+/5.57+  1925-/ 32.1-
2003 03 12    08 51.81   +18 29.1    4.498    0.121  4844+/5.67+  1494-/ 24.9-
2003 03 22    08 49.49   +18 44.9    4.628    0.117  4835+/5.67+  1067-/ 17.8-
2003 04 01    08 48.32   +18 55.3    4.776    0.113  4739+/5.57+   655-/ 10.9-
2003 04 11    08 48.34   +19 00.3    4.938    0.110  4552+/5.35+   264-/  4.4-
2003 04 21    08 49.50   +18 59.9    5.109    0.106  4274+/5.02+   101+/  1.7+
2003 05 01    08 51.74   +18 54.4    5.284    0.103  3906+/4.59+   437+/  7.3+
2003 05 11    08 54.96   +18 44.1    5.457    0.100  3448+/4.05+   742+/ 12.4+
2003 05 21    08 59.04   +18 29.0    5.626    0.097  2908+/3.41+  1016+/ 16.9+
2003 05 31    09 03.86   +18 09.4    5.785    0.095  2297+/2.69+  1256+/ 20.9+
2003 06 10    09 09.34   +17 45.7    5.931    0.093  1631+/1.90+  1459+/ 24.3+
2003 06 20    09 15.37   +17 17.8    6.062    0.093   930+/1.08+  1623+/ 27.1+
2003 06 30    09 21.88   +16 46.2    6.174    0.093   218+/0.25+  1744+/ 29.1+
2003 07 10    09 28.80   +16 11.0    6.266    0.094   479-/0.55-  1820+/ 30.3+

    S/2003 J 4                                                   q = 0.1234
Date    TT    R. A. (2000) Decl.     Delta     r_J   dR.A. ("/m)  dDecl. ("/')
2003 03 02    08 57.47   +17 27.5    4.461    0.174  6751+/7.86+  4383-/ 73.0-
2003 03 12    08 54.08   +17 46.4    4.565    0.176  6809+/7.95+  4060-/ 67.7-
2003 03 22    08 51.76   +18 00.6    4.692    0.177  6796+/7.94+  3724-/ 62.1-
2003 04 01    08 50.61   +18 09.8    4.836    0.179  6718+/7.86+  3385-/ 56.4-
2003 04 11    08 50.69   +18 13.8    4.994    0.181  6582+/7.70+  3051-/ 50.8-
2003 04 21    08 51.96   +18 12.8    5.161    0.182  6396+/7.48+  2726-/ 45.4-
2003 05 01    08 54.37   +18 07.0    5.331    0.183  6168+/7.21+  2412-/ 40.2-
2003 05 11    08 57.81   +17 56.5    5.502    0.184  5904+/6.90+  2109-/ 35.1-
2003 05 21    09 02.17   +17 41.8    5.669    0.185  5610+/6.54+  1815-/ 30.2-
2003 05 31    09 07.34   +17 23.1    5.828    0.186  5290+/6.16+  1527-/ 25.5-
2003 06 10    09 13.19   +17 00.6    5.977    0.186  4949+/5.75+  1244-/ 20.7-
2003 06 20    09 19.61   +16 34.8    6.113    0.187  4589+/5.32+   961-/ 16.0-
2003 06 30    09 26.50   +16 05.8    6.234    0.187  4214+/4.87+   677-/ 11.3-
2003 07 10    09 33.76   +15 34.1    6.337    0.187  3826+/4.41+   391-/  6.5-

    S/2003 J 5                                                   q = 0.1269
Date    TT    R. A. (2000) Decl.     Delta     r_J   dR.A. ("/m)  dDecl. ("/')
2003 03 02    08 56.77   +17 36.7    4.331    0.194  6145+/7.16+  3830-/ 63.8-
2003 03 12    08 53.46   +17 52.0    4.433    0.194  6268+/7.32+  3723-/ 62.0-
2003 03 22    08 51.25   +18 02.6    4.559    0.194  6358+/7.43+  3604-/ 60.1-
2003 04 01    08 50.25   +18 08.1    4.702    0.194  6416+/7.50+  3483-/ 58.0-
2003 04 11    08 50.52   +18 08.6    4.860    0.194  6447+/7.54+  3364-/ 56.1-
2003 04 21    08 52.02   +18 04.1    5.026    0.193  6450+/7.54+  3249-/ 54.2-
2003 05 01    08 54.66   +17 54.8    5.198    0.192  6426+/7.50+  3140-/ 52.3-
2003 05 11    08 58.35   +17 41.1    5.370    0.191  6374+/7.43+  3035-/ 50.6-
2003 05 21    09 02.96   +17 23.1    5.539    0.191  6293+/7.33+  2934-/ 48.9-
2003 05 31    09 08.36   +17 01.3    5.702    0.189  6182+/7.18+  2832-/ 47.2-
2003 06 10    09 14.44   +16 35.8    5.855    0.188  6041+/7.00+  2729-/ 45.5-
2003 06 20    09 21.07   +16 07.1    5.996    0.187  5868+/6.79+  2620-/ 43.7-
2003 06 30    09 28.16   +15 35.4    6.124    0.185  5665+/6.53+  2503-/ 41.7-
2003 07 10    09 35.60   +15 01.1    6.234    0.183  5430+/6.25+  2375-/ 39.6-

    S/2003 J 6                                                   q = 0.0176
Date    TT    R. A. (2000) Decl.     Delta     r_J   dR.A. ("/m)  dDecl. ("/')
2003 03 02    08 51.93   +17 56.9    4.356    0.117  1987+/2.32+  2616-/ 43.6-
2003 03 12    08 47.88   +18 16.3    4.453    0.110  1488+/1.74+  2265-/ 37.8-
2003 03 22    08 44.98   +18 31.2    4.574    0.102   991+/1.16+  1885-/ 31.4-
2003 04 01    08 43.35   +18 41.5    4.715    0.091   509+/0.60+  1479-/ 24.7-
2003 04 11    08 43.05   +18 47.2    4.873    0.079    54+/0.06+  1048-/ 17.5-
2003 04 21    08 44.06   +18 48.5    5.042    0.064   360-/0.42-   586-/  9.8-
2003 05 01    08 46.34   +18 45.6    5.222    0.045   697-/0.82-    92-/  1.5-
2003 05 11    08 50.06   +18 37.7    5.414    0.023   732-/0.86-   361+/  6.0+
2003 05 21    08 56.16   +18 11.5    5.599    0.026   453+/0.53+    31-/  0.5-
2003 05 31    09 02.82   +17 36.4    5.743    0.048  1409+/1.64+   724-/ 12.1-
2003 06 10    09 09.70   +17 00.9    5.872    0.066  1948+/2.26+  1224-/ 20.4-
2003 06 20    09 16.93   +16 24.1    5.988    0.081  2284+/2.65+  1601-/ 26.7-
2003 06 30    09 24.52   +15 45.5    6.090    0.093  2505+/2.89+  1896-/ 31.6-
2003 07 10    09 32.40   +15 05.1    6.177    0.103  2652+/3.05+  2131-/ 35.5-

